QPF
0.02 0.02 0.02 0.03 0.03 0.02 0.02 0.03 0.03 0.05 0.06 0.07 0.06 0.04 0.02 0.01 0.01 0.00 0.01 0.00 0.00 0.00 0.00 0.01 0.02 0.03 0.04 0.02 0.01 0.01 0.02 0.03 0.04 0.02 0.02 0.02 0.02 0.03
0.03 0.04 0.04 0.03 0.04 0.03 0.02 0.03 0.04 0.04 0.04 0.05 0.04 0.03 0.02 0.01 0.01 0.00 0.02 0.01 0.00 0.00 0.01 0.01 0.01 0.01 0.01 0.02 0.02 0.02 0.02 0.03 0.04 0.03 0.01 0.01 0.01 0.01
0.03 0.03 0.04 0.03 0.04 0.03 0.02 0.02 0.03 0.03 0.02 0.02 0.02 0.03 0.02 0.02 0.01 0.01 0.01 0.01 0.01 0.00 0.00 0.00 0.01 0.01 0.01 0.01 0.01 0.01 0.01 0.02 0.03 0.03 0.01 0.00 0.00 0.01
0.05 0.04 0.03 0.01 0.03 0.03 0.02 0.02 0.02 0.02 0.01 0.02 0.02 0.02 0.02 0.02 0.02 0.01 0.01 0.01 0.02 0.01 0.00 0.00 0.00 0.00 0.00 0.01 0.00 0.00 0.01 0.01 0.02 0.02 0.01 0.01 0.00 0.00
0.04 0.03 0.03 0.03 0.03 0.04 0.02 0.02 0.02 0.02 0.02 0.02 0.02 0.02 0.01 0.01 0.01 0.02 0.01 0.01 0.01 0.01 0.00 0.00 0.00 0.00 0.00 0.00 0.00 0.00 0.00 0.01 0.02 0.02 0.01 0.00 0.00 0.00
0.01 0.02 0.02 0.02 0.03 0.04 0.03 0.02 0.02 0.02 0.03 0.01 0.01 0.01 0.01 0.01 0.01 0.02 0.02 0.02 0.01 0.01 0.00 0.00 0.00 0.00 0.00 0.00 0.00 0.00 0.00 0.01 0.01 0.01 0.01 0.01 0.00 0.00
0.01 0.01 0.01 0.02 0.02 0.02 0.02 0.02 0.01 0.02 0.02 0.01 0.01 0.01 0.01 0.02 0.02 0.03 0.03 0.03 0.02 0.01 0.00 0.00 0.00 0.00 0.00 0.00 0.00 0.00 0.00 0.01 0.01 0.02 0.01 0.01 0.01 0.00
0.00 0.00 0.01 0.01 0.01 0.01 0.01 0.01 0.00 0.01 0.01 0.01 0.01 0.02 0.02 0.03 0.03 0.03 0.03 0.02 0.01 0.00 0.00 0.00 0.00 0.00 0.00 0.00 0.00 0.00 0.00 0.00 0.01 0.02 0.02 0.01 0.00 0.00
0.00 0.00 0.00 0.00 0.00 0.00 0.00 0.00 0.00 0.00 0.00 0.01 0.02 0.02 0.01 0.01 0.01 0.01 0.02 0.03 0.02 0.00 0.00 0.00 0.00 0.00 0.00 0.00 0.00 0.00 0.00 0.00 0.00 0.00 0.00 0.01 0.01 0.00
0.00 0.00 0.00 0.00 0.00 0.00 0.01 0.00 0.00 0.00 0.00 0.00 0.01 0.02 0.02 0.01 0.01 0.01 0.01 0.01 0.01 0.01 0.00 0.00 0.00 0.00 0.00 0.00 0.00 0.00 0.00 0.00 0.00 0.00 0.00 0.00 0.00 0.00
0.00 0.00 0.00 0.00 0.00 0.00 0.00 0.00 0.00 0.00 0.00 0.00 0.00 0.01 0.01 0.01 0.01 0.01 0.00 0.01 0.01 0.00 0.00 0.00 0.00 0.00 0.00 0.00 0.00 0.00 0.00 0.00 0.00 0.00 0.00 0.00 0.00 0.00
0.00 0.00 0.00 0.00 0.00 0.00 0.01 0.00 0.00 0.00 0.00 0.00 0.00 0.00 0.00 0.00 0.00 0.00 0.01 0.01 0.01 0.01 0.00 0.00 0.00 0.00 0.00 0.00 0.00 0.00 0.00 0.00 0.00 0.00 0.00 0.00 0.00 0.00
0.00 0.00 0.00 0.00 0.00 0.00 0.00 0.00 0.00 0.00 0.00 0.00 0.00 0.00 0.00 0.00 0.00 0.00 0.00 0.00 0.01 0.01 0.00 0.00 0.00 0.01 0.01 0.00 0.00 0.00 0.00 0.00 0.00 0.00 0.00 0.00 0.00 0.00
0.00 0.00 0.00 0.00 0.00 0.00 0.00 0.00 0.00 0.00 0.00 0.00 0.00 0.00 0.00 0.00 0.00 0.00 0.00 0.00 0.00 0.00 0.00 0.00 0.00 0.00 0.00 0.00 0.00 0.00 0.00 0.00 0.00 0.00 0.00 0.00 0.00 0.00
0.00 0.00 0.00 0.00 0.00 0.00 0.00 0.00 0.00 0.00 0.00 0.00 0.00 0.00 0.00 0.00 0.00 0.00 0.00 0.00 0.00 0.00 0.00 0.00 0.00 0.00 0.00 0.00 0.00 0.00 0.00 0.00 0.00 0.00 0.00 0.00 0.00 0.00
0.00 0.00 0.00 0.00 0.00 0.00 0.00 0.00 0.00 0.00 0.00 0.00 0.00 0.00 0.00 0.00 0.00 0.00 0.00 0.00 0.00 0.00 0.00 0.00 0.00 0.00 0.00 0.00 0.00 0.00 0.00 0.00 0.00 0.00 0.00 0.00 0.00 0.00
0.01 0.00 0.00 0.00 0.00 0.00 0.01 0.01 0.00 0.00 0.00 0.00 0.00 0.00 0.00 0.00 0.00 0.00 0.00 0.00 0.00 0.00 0.00 0.00 0.00 0.00 0.00 0.00 0.00 0.00 0.00 0.00 0.00 0.00 0.00 0.00 0.00 0.00
0.01 0.01 0.01 0.01 0.01 0.01 0.01 0.00 0.00 0.00 0.00 0.00 0.00 0.00 0.00 0.00 0.00 0.00 0.00 0.00 0.01 0.01 0.00 0.00 0.00 0.00 0.00 0.00 0.00 0.00 0.00 0.00 0.00 0.00 0.00 0.00 0.00 0.00
0.01 0.01 0.01 0.01 0.01 0.00 0.00 0.00 0.00 0.00 0.00 0.00 0.00 0.00 0.00 0.00 0.00 0.00 0.00 0.00 0.01 0.01 0.01 0.00 0.00 0.00 0.00 0.00 0.00 0.00 0.00 0.00 0.00 0.00 0.00 0.00 0.00 0.00
0.01 0.01 0.01 0.01 0.01 0.01 0.01 0.00 0.00 0.00 0.00 0.00 0.00 0.00 0.00 0.00 0.00 0.00 0.01 0.00 0.00 0.00 0.00 0.00 0.00 0.00 0.00 0.00 0.00 0.00 0.00 0.00 0.00 0.00 0.00 0.00 0.00 0.00
0.01 0.01 0.01 0.01 0.01 0.01 0.00 0.00 0.00 0.00 0.00 0.00 0.00 0.00 0.00 0.00 0.00 0.00 0.00 0.00 0.00 0.00 0.00 0.00 0.00 0.00 0.00 0.00 0.00 0.00 0.00 0.00 0.00 0.00 0.00 0.00 0.00 0.00
0.01 0.01 0.01 0.01 0.00 0.00 0.00 0.00 0.00 0.00 0.00 0.00 0.00 0.00 0.00 0.01 0.01 0.01 0.00 0.00 0.00 0.00 0.00 0.00 0.00 0.00 0.00 0.00 0.00 0.00 0.00 0.00 0.00 0.00 0.00 0.00 0.00 0.01
0.01 0.00 0.00 0.00 0.00 0.00 0.00 0.00 0.00 0.00 0.00 0.00 0.00 0.01 0.01 0.01 0.01 0.00 0.00 0.00 0.00 0.00 0.00 0.00 0.00 0.00 0.00 0.01 0.01 0.01 0.01 0.01 0.00 0.00 0.00 0.00 0.01 0.01
MSLP
1017.83 1017.95 1018.16 1018.42 1018.72 1018.99 1019.21 1019.34 1019.39 1019.36 1019.28 1019.18 1019.10 1019.07 1019.07 1019.11 1019.16 1019.19 1019.16 1019.06 1018.86 1018.59 1018.25 1017.88 1017.50 1017.12 1016.77 1016.44 1016.13 1015.81 1015.49 1015.17 1014.84 1014.52 1014.23 1013.98 1013.79 1013.68
1018.09 1018.16 1018.30 1018.52 1018.77 1019.03 1019.24 1019.38 1019.45 1019.44 1019.37 1019.28 1019.19 1019.13 1019.11 1019.12 1019.16 1019.19 1019.18 1019.12 1018.99 1018.79 1018.55 1018.27 1017.97 1017.68 1017.40 1017.14 1016.89 1016.64 1016.39 1016.14 1015.88 1015.63 1015.40 1015.20 1015.04 1014.94
1018.44 1018.46 1018.55 1018.72 1018.93 1019.16 1019.37 1019.52 1019.60 1019.61 1019.56 1019.47 1019.38 1019.29 1019.24 1019.22 1019.22 1019.22 1019.21 1019.17 1019.08 1018.94 1018.77 1018.57 1018.36 1018.15 1017.95 1017.76 1017.58 1017.39 1017.21 1017.01 1016.82 1016.62 1016.43 1016.26 1016.12 1016.03
1018.86 1018.84 1018.89 1019.01 1019.19 1019.40 1019.60 1019.76 1019.86 1019.89 1019.86 1019.79 1019.68 1019.58 1019.49 1019.43 1019.38 1019.35 1019.31 1019.25 1019.18 1019.08 1018.96 1018.82 1018.68 1018.54 1018.41 1018.29 1018.17 1018.05 1017.92 1017.79 1017.63 1017.48 1017.32 1017.18 1017.06 1016.96
1019.32 1019.28 1019.29 1019.38 1019.53 1019.71 1019.90 1020.07 1020.19 1020.25 1020.24 1020.18 1020.09 1019.98 1019.86 1019.75 1019.66 1019.58 1019.50 1019.42 1019.33 1019.24 1019.14 1019.03 1018.94 1018.85 1018.78 1018.71 1018.65 1018.59 1018.51 1018.43 1018.32 1018.20 1018.08 1017.96 1017.84 1017.74
1019.79 1019.72 1019.72 1019.77 1019.89 1020.06 1020.24 1020.41 1020.54 1020.62 1020.64 1020.61 1020.53 1020.42 1020.30 1020.16 1020.03 1019.91 1019.79 1019.67 1019.55 1019.44 1019.33 1019.24 1019.16 1019.10 1019.06 1019.03 1019.01 1018.99 1018.95 1018.91 1018.85 1018.77 1018.67 1018.57 1018.47 1018.38
1020.21 1020.14 1020.11 1020.15 1020.25 1020.39 1020.55 1020.72 1020.86 1020.96 1021.00 1021.00 1020.95 1020.85 1020.73 1020.59 1020.44 1020.29 1020.13 1019.98 1019.82 1019.68 1019.55 1019.44 1019.35 1019.30 1019.26 1019.25 1019.24 1019.25 1019.24 1019.23 1019.20 1019.15 1019.09 1019.02 1018.94 1018.86
1020.55 1020.48 1020.45 1020.48 1020.55 1020.67 1020.81 1020.97 1021.10 1021.21 1021.28 1021.30 1021.27 1021.21 1021.11 1020.98 1020.84 1020.67 1020.50 1020.32 1020.13 1019.96 1019.80 1019.66 1019.55 1019.47 1019.42 1019.40 1019.39 1019.40 1019.40 1019.41 1019.40 1019.38 1019.34 1019.30 1019.25 1019.19
1020.78 1020.73 1020.71 1020.73 1020.79 1020.89 1021.01 1021.14 1021.26 1021.37 1021.45 1021.49 1021.49 1021.46 1021.39 1021.29 1021.17 1021.02 1020.84 1020.66 1020.46 1020.26 1020.08 1019.91 1019.77 1019.66 1019.58 1019.53 1019.50 1019.49 1019.49 1019.49 1019.49 1019.49 1019.48 1019.46 1019.44 1019.42
1020.90 1020.88 1020.89 1020.91 1020.97 1021.05 1021.15 1021.25 1021.36 1021.45 1021.52 1021.57 1021.60 1021.59 1021.56 1021.51 1021.41 1021.29 1021.15 1020.97 1020.79 1020.59 1020.39 1020.20 1020.04 1019.90 1019.78 1019.70 1019.64 1019.61 1019.59 1019.58 1019.57 1019.57 1019.58 1019.58 1019.59 1019.60
1020.92 1020.95 1020.99 1021.04 1021.11 1021.19 1021.27 1021.35 1021.42 1021.49 1021.55 1021.60 1021.64 1021.66 1021.66 1021.64 1021.59 1021.51 1021.40 1021.27 1021.11 1020.93 1020.74 1020.56 1020.38 1020.23 1020.09 1019.98 1019.90 1019.83 1019.79 1019.75 1019.74 1019.73 1019.74 1019.76 1019.79 1019.83
1020.88 1020.96 1021.05 1021.14 1021.23 1021.31 1021.38 1021.44 1021.50 1021.54 1021.59 1021.62 1021.66 1021.69 1021.72 1021.73 1021.72 1021.69 1021.63 1021.55 1021.43 1021.29 1021.14 1020.98 1020.82 1020.67 1020.54 1020.42 1020.31 1020.23 1020.16 1020.11 1020.08 1020.07 1020.08 1020.10 1020.15 1020.21
1020.79 1020.94 1021.09 1021.23 1021.35 1021.44 1021.52 1021.57 1021.61 1021.63 1021.66 1021.68 1021.71 1021.75 1021.79 1021.83 1021.86 1021.87 1021.86 1021.83 1021.77 1021.69 1021.59 1021.48 1021.36 1021.24 1021.13 1021.02 1020.92 1020.84 1020.76 1020.70 1020.66 1020.64 1020.64 1020.67 1020.72 1020.79
1020.69 1020.90 1021.10 1021.29 1021.45 1021.58 1021.67 1021.72 1021.75 1021.77 1021.78 1021.80 1021.82 1021.86 1021.91 1021.97 1022.03 1022.08 1022.12 1022.15 1022.15 1022.13 1022.10 1022.05 1021.99 1021.92 1021.85 1021.78 1021.71 1021.64 1021.58 1021.53 1021.48 1021.46 1021.45 1021.47 1021.52 1021.58
1020.59 1020.84 1021.10 1021.33 1021.53 1021.69 1021.81 1021.88 1021.92 1021.95 1021.96 1021.97 1022.00 1022.05 1022.11 1022.19 1022.27 1022.36 1022.44 1022.52 1022.58 1022.63 1022.66 1022.68 1022.69 1022.69 1022.68 1022.66 1022.64 1022.61 1022.57 1022.53 1022.50 1022.48 1022.46 1022.47 1022.49 1022.53
1020.50 1020.79 1021.07 1021.34 1021.58 1021.77 1021.92 1022.03 1022.09 1022.14 1022.17 1022.21 1022.25 1022.32 1022.40 1022.50 1022.61 1022.73 1022.86 1022.97 1023.09 1023.19 1023.29 1023.37 1023.45 1023.51 1023.57 1023.61 1023.64 1023.65 1023.65 1023.64 1023.62 1023.60 1023.58 1023.56 1023.55 1023.55
1020.43 1020.73 1021.04 1021.33 1021.60 1021.82 1022.00 1022.15 1022.26 1022.34 1022.42 1022.49 1022.58 1022.68 1022.79 1022.92 1023.07 1023.22 1023.38 1023.54 1023.69 1023.84 1023.98 1024.12 1024.25 1024.37 1024.47 1024.57 1024.64 1024.69 1024.73 1024.74 1024.73 1024.71 1024.67 1024.63 1024.58 1024.53
1020.41 1020.71 1021.02 1021.32 1021.60 1021.86 1022.07 1022.26 1022.42 1022.57 1022.70 1022.83 1022.97 1023.13 1023.29 1023.47 1023.65 1023.84 1024.03 1024.21 1024.40 1024.57 1024.75 1024.91 1025.07 1025.22 1025.36 1025.48 1025.59 1025.66 1025.71 1025.73 1025.72 1025.69 1025.63 1025.55 1025.45 1025.33
1020.46 1020.75 1021.06 1021.36 1021.65 1021.93 1022.19 1022.42 1022.64 1022.84 1023.05 1023.25 1023.46 1023.67 1023.90 1024.12 1024.35 1024.58 1024.79 1025.00 1025.20 1025.39 1025.57 1025.75 1025.91 1026.06 1026.20 1026.33 1026.43 1026.51 1026.55 1026.56 1026.54 1026.48 1026.38 1026.25 1026.09 1025.89
1020.63 1020.91 1021.21 1021.51 1021.81 1022.11 1022.40 1022.67 1022.95 1023.22 1023.49 1023.76 1024.04 1024.32 1024.61 1024.89 1025.16 1025.42 1025.66 1025.89 1026.09 1026.28 1026.45 1026.60 1026.75 1026.87 1026.99 1027.09 1027.16 1027.21 1027.23 1027.21 1027.15 1027.05 1026.90 1026.71 1026.48 1026.22
1020.93 1021.21 1021.51 1021.82 1022.13 1022.45 1022.76 1023.07 1023.39 1023.71 1024.04 1024.38 1024.71 1025.06 1025.39 1025.72 1026.03 1026.32 1026.58 1026.82 1027.02 1027.19 1027.34 1027.46 1027.56 1027.65 1027.71 1027.76 1027.79 1027.79 1027.76 1027.69 1027.58 1027.43 1027.23 1026.98 1026.68 1026.35
1021.39 1021.69 1022.00 1022.32 1022.64 1022.97 1023.30 1023.64 1023.99 1024.34 1024.71 1025.08 1025.47 1025.84 1026.22 1026.58 1026.91 1027.22 1027.50 1027.73 1027.92 1028.08 1028.20 1028.28 1028.34 1028.37 1028.38 1028.36 1028.33 1028.27 1028.18 1028.05 1027.89 1027.68 1027.43 1027.12 1026.77 1026.38
1022.00 1022.33 1022.66 1022.99 1023.33 1023.67 1024.01 1024.36 1024.72 1025.09 1025.47 1025.85 1026.25 1026.64 1027.03 1027.40 1027.75 1028.06 1028.34 1028.57 1028.75 1028.89 1028.98 1029.03 1029.04 1029.02 1028.98 1028.90 1028.80 1028.68 1028.53 1028.35 1028.14 1027.89 1027.59 1027.24 1026.84 1026.40
Thickness
5705 5704 5702 5701 5700 5699 5697 5694 5686 5678 5676 5680 5681 5682 5682 5681 5680 5679 5678 5677 5677 5676 5676 5676 5676 5675 5675 5675 5675 5675 5676 5676 5677 5678 5679 5680 5681 5681
5703 5702 5700 5699 5698 5697 5695 5694 5691 5684 5677 5679 5680 5681 5681 5680 5678 5677 5676 5675 5674 5674 5673 5672 5672 5671 5670 5670 5670 5670 5670 5670 5670 5672 5673 5674 5674 5674
5702 5700 5698 5697 5695 5694 5693 5691 5688 5685 5677 5677 5679 5680 5679 5678 5677 5676 5675 5674 5672 5671 5670 5669 5668 5667 5666 5665 5665 5664 5663 5663 5664 5666 5667 5667 5667 5667
5699 5698 5696 5695 5693 5692 5690 5687 5685 5684 5679 5674 5675 5676 5676 5676 5675 5674 5673 5672 5670 5669 5668 5667 5665 5664 5662 5661 5660 5659 5658 5658 5658 5659 5660 5660 5660 5660
5697 5695 5694 5692 5689 5688 5686 5684 5682 5682 5679 5674 5672 5673 5673 5673 5672 5671 5671 5669 5668 5667 5665 5663 5662 5660 5658 5657 5655 5654 5653 5652 5652 5651 5652 5652 5652 5651
5696 5694 5692 5689 5686 5685 5683 5680 5679 5676 5675 5672 5669 5669 5668 5669 5667 5664 5663 5664 5664 5664 5662 5660 5659 5657 5654 5652 5651 5649 5647 5646 5645 5644 5643 5643 5643 5642
5693 5691 5688 5686 5684 5682 5680 5677 5675 5672 5669 5667 5665 5664 5662 5661 5660 5660 5658 5658 5659 5659 5657 5656 5654 5652 5650 5648 5646 5643 5641 5639 5638 5636 5635 5634 5633 5633
5688 5687 5685 5683 5681 5679 5678 5675 5673 5669 5665 5663 5661 5659 5658 5657 5657 5656 5653 5651 5649 5653 5651 5650 5650 5647 5645 5643 5640 5638 5635 5633 5631 5629 5627 5625 5624 5623
5685 5683 5682 5680 5678 5675 5673 5672 5669 5667 5665 5661 5657 5655 5654 5654 5653 5650 5648 5646 5645 5647 5646 5642 5643 5640 5639 5637 5635 5632 5629 5626 5623 5621 5618 5616 5615 5614
5680 5679 5676 5674 5673 5671 5669 5667 5664 5662 5661 5658 5655 5653 5652 5651 5649 5646 5644 5643 5643 5642 5640 5634 5634 5633 5633 5630 5627 5625 5621 5618 5615 5612 5610 5608 5606 5604
5675 5673 5672 5668 5667 5666 5664 5661 5658 5657 5656 5654 5652 5650 5647 5645 5643 5640 5637 5634 5631 5632 5631 5627 5626 5624 5624 5622 5619 5616 5613 5610 5607 5604 5601 5599 5597 5595
5669 5667 5665 5664 5662 5660 5657 5655 5651 5650 5650 5648 5646 5644 5641 5639 5636 5633 5629 5625 5622 5620 5621 5618 5616 5614 5611 5612 5610 5606 5603 5600 5598 5595 5592 5590 5587 5585
5663 5660 5658 5658 5656 5654 5652 5649 5647 5645 5644 5642 5639 5637 5634 5632 5629 5626 5623 5619 5614 5611 5612 5609 5605 5602 5598 5597 5598 5596 5593 5590 5587 5584 5582 5579 5576 5573
5657 5655 5653 5652 5650 5648 5646 5644 5642 5640 5638 5635 5631 5628 5626 5623 5621 5619 5616 5613 5610 5606 5603 5600 5595 5591 5587 5584 5583 5584 5581 5579 5576 5573 5570 5568 5564 5561
5652 5650 5648 5646 5644 5642 5640 5638 5635 5632 5629 5626 5622 5620 5619 5617 5614 5611 5608 5605 5602 5599 5595 5591 5587 5583 5578 5574 5572 5571 5568 5567 5564 5561 5558 5554 5551 5548
5646 5644 5642 5639 5637 5635 5633 5630 5628 5625 5622 5618 5616 5614 5612 5609 5605 5602 5598 5594 5590 5587 5585 5581 5577 5573 5568 5565 5561 5558 5555 5552 5551 5547 5544 5541 5538 5534
5641 5638 5634 5631 5629 5627 5625 5623 5621 5618 5614 5611 5608 5605 5602 5599 5595 5592 5588 5584 5579 5575 5572 5570 5566 5562 5559 5554 5549 5545 5542 5539 5536 5533 5530 5526 5523 5520
5637 5632 5629 5626 5624 5621 5618 5615 5612 5609 5607 5603 5599 5596 5592 5589 5585 5582 5578 5573 5568 5564 5560 5557 5554 5550 5545 5541 5537 5532 5528 5524 5522 5518 5514 5510 5508 5506
5630 5626 5623 5621 5618 5615 5611 5608 5604 5601 5598 5594 5590 5586 5583 5579 5575 5571 5567 5562 5557 5553 5548 5544 5539 5533 5528 5525 5524 5519 5514 5511 5507 5503 5499 5495 5492 5491
5623 5620 5617 5614 5611 5607 5603 5600 5596 5593 5589 5585 5581 5577 5573 5569 5564 5560 5555 5550 5545 5541 5536 5531 5525 5519 5513 5510 5508 5506 5501 5496 5492 5488 5485 5482 5479 5477
5615 5612 5609 5606 5602 5599 5595 5591 5588 5584 5580 5575 5571 5567 5563 5558 5554 5549 5544 5540 5534 5529 5523 5517 5513 5508 5503 5499 5494 5491 5487 5482 5477 5473 5470 5467 5465 5462
5608 5605 5601 5598 5594 5590 5586 5583 5579 5574 5570 5565 5561 5557 5552 5548 5543 5538 5532 5527 5521 5516 5511 5505 5501 5495 5490 5485 5480 5477 5474 5470 5465 5460 5456 5452 5447 5446
5601 5597 5594 5590 5586 5582 5577 5573 5569 5564 5560 5555 5550 5545 5541 5536 5531 5526 5521 5515 5509 5504 5498 5492 5487 5482 5477 5471 5467 5463 5460 5456 5452 5448 5444 5440 5435 5432